www.pogodaiklimat.ru

Погода и климат >> Архив погоды >> Австралия >> Квинсленд >> Фосфат-Хилл


ПОГОДА в Фосфат-Хилл

  • Прогноз погоды в Фосфат-Хилл
  • Монитор погоды в Фосфат-Хилл

АРХИВ ПОГОДЫ в Фосфат-Хилл

Время (UTC), дата Ветер
(напр.,м/с)
 
Видим.   Явления Облачность Т
(С)
Тd
(С)
f
(%)
Тe
(С)
Тes
(С)
Комфортность P
(гПа)
Po
(гПа)
Тmin
(С)
Tmax
(С)
R
(мм)
R24
(мм)
S
(см)
17 12.04 Ю 2 н/о 8/0
[]
+19.6 +10.6 56 +21 +21 комфорт 1016.5 983.6
23 12.04 В 4 н/о н/о +24.7 +14.5 53 +27 +27 жарко 1018.7 985.8
02 13.04 В 6 н/о н/о +29.5 +11.1 32 +30 +30 жарко 1017.2 984.3
05 13.04 В 5 н/о н/о +30.1 +9.6 28 +30 +30 жарко 1014.2 981.4
08 13.04 ЮВ 5 н/о н/о +28.0 +7.3 27 +27 +27 жарко 1014.9 982.1
14 13.04 В 4 н/о н/о +21.1 +9.4 47 +22 +22 комфорт 1016.7 983.8
23 13.04 В 5 н/о н/о +24.5 +10.4 41 +26 +26 жарко 1017.8 984.9
02 14.04 В 5 н/о н/о +28.9 +9.6 30 +29 +29 жарко 1016.4 983.5
05 14.04 ЮВ 4 н/о н/о +29.9 +9.4 28 +30 +30 жарко 1013.7 980.9
08 14.04 В 3 н/о н/о +27.8 +9.1 31 +28 +28 жарко 1013.5 980.7
11 14.04 ЮВ 3 н/о н/о +21.7 +10.8 50 +24 +24 комфорт 1015.0 982.2
14 14.04 В 2 н/о н/о +19.6 +10.9 57 +22 +22 комфорт 1015.1 982.3
23 14.04 В 5 н/о н/о +23.9 +10.9 44 +25 +25 комфорт 1017.1 984.2
02 15.04 В 6 н/о н/о +29.5 +10.1 30 +30 +30 жарко 1015.7 982.9
05 15.04 В 5 н/о н/о +30.1 +9.1 27 +30 +30 жарко 1012.8 980.1
08 15.04 ЮВ 4 н/о н/о +28.2 +8.5 29 +28 +28 жарко 1013.1 980.4
11 15.04 ЮВ 3 н/о н/о +21.2 +10.1 49 +23 +23 комфорт 1015.5 982.7
14 15.04 В 2 н/о н/о +19.1 +10.4 57 +21 +21 комфорт 1016.1 983.3
17 15.04 штиль 0 н/о н/о +18.0 +11.6 66 +18 +18 1015.1 982.3
20 15.04 В 3 н/о н/о +18.1 +9.5 57 +18 +18 1016.0 983.2
23 15.04 В 4 н/о н/о +25.0 +10.5 40 +26 +26 жарко 1017.5 984.6
02 16.04 В 5 н/о н/о +29.3 +8.9 28 +29 +29 жарко 1016.6 983.7
05 16.04 В 4 н/о н/о +29.9 +8.3 26 +29 +29 жарко 1014.3 981.5
08 16.04 В 4 н/о н/о +28.0 +8.3 29 +28 +28 жарко 1014.5 981.7
11 16.04 ЮВ 3 н/о н/о +22.1 +10.9 49 +24 +24 комфорт 1016.0 983.2
14 16.04 ЮВ 2 н/о н/о +19.4 +10.7 57 +21 +21 комфорт 1016.2 983.4 +30.6
17 16.04 штиль 0 н/о н/о +18.4 +11.7 65 +19 +19 1015.2 982.4
20 16.04 штиль 0 н/о н/о +16.2 +11.2 72 +16 +16 1015.6 982.8
23 16.04 СВ 3 н/о н/о +25.0 +11.9 44 +27 +27 жарко 1017.6 984.7
02 17.04 СВ 4 н/о н/о +30.1 +10.6 30 +30 +30 жарко 1016.6 983.7 +15.4
05 17.04 В 4 н/о н/о +30.1 +9.1 27 +30 +30 жарко 1014.3 981.5
08 17.04 ЮВ 4 н/о н/о +28.3 +9.6 31 +28 +28 жарко 1014.8 982.0
11 17.04 ЮВ 3 н/о н/о +22.4 +11.8 51 +25 +25 комфорт 1017.0 984.1
14 17.04 В 1 н/о н/о +19.8 +11.6 59 +23 +23 комфорт 1017.2 984.3 +31.1
17 17.04 ЮВ 1 н/о н/о +17.3 +12.6 74 +19 +19 1016.2 983.4
20 17.04 штиль 0 н/о н/о +15.6 +11.6 77 +15 +15 1017.1 984.2
23 17.04 В 3 н/о н/о +23.6 +11.6 47 +25 +25 комфорт 1018.7 985.8
02 18.04 В 4 н/о н/о +29.3 +9.9 30 +29 +29 жарко 1017.7 984.8 +15.2
05 18.04 В 5 н/о н/о +30.4 +9.3 27 +30 +30 жарко 1015.4 982.6
08 18.04 ЮВ 5 н/о н/о +28.0 +7.8 28 +28 +28 жарко 1015.7 982.9
11 18.04 ЮВ 3 н/о н/о +22.0 +10.2 47 +24 +24 комфорт 1017.5 984.6
14 18.04 В 2 н/о н/о +19.9 +10.6 55 +22 +22 комфорт 1017.7 984.8 +31.0
17 18.04 ЮВ 3 н/о 9/0
[]
+19.1 +11.7 62 +20 +20 1016.9 984.0
20 18.04 В 3 н/о 9/0
[]
+19.7 +11.2 58 +21 +21 комфорт 1017.3 984.4
23 18.04 В 5 н/о н/о +24.6 +11.9 45 +26 +26 жарко 1018.9 986.0
02 19.04 В 6 н/о н/о +29.9 +11.4 32 +30 +30 жарко 1017.6 984.7 +18.5
05 19.04 В 5 н/о н/о +29.9 +9.4 28 +30 +30 жарко 1014.8 982.0

 

Местоположение метеостанции Фосфат-Хилл (Квинсленд, Австралия): широта -21.80 долгота 139.92 высота над уровнем моря 289 м.

В архиве по умолчанию представлена погода в Фосфат-Хилл за последнюю неделю. Архивные данные за месяц целиком и за предыдущие месяцы, начиная с января 2011 года, Вы можете получить, выбрав интересующий диапазон дат из раскрывающегося списка и нажав кнопку "Ввод!".


*Определитесь, кто Вы:
робот инопланетянин человек

Внимание! Время в таблицах - всемирное. Для получения местного времени необходимо прибавить поправку, которая равна 10 ч.

Смотрите также архив погоды в соседних городах и на ближайших метеорологических станциях:

Погода в Аэропорту Трепелл (Квинсленд, Австралия) (99 км)
Погода на Маунт-Айза (Квинсленд, Австралия) (133 км)
Погода в Клонкарри (Квинсленд, Австралия) (139 км)
Погода в Нью Мэй Даун (Квинсленд, Австралия) (147 км)
Погода на Озере Джулиус (Квинсленд, Австралия) (188 км)
Погода в Джулия Крик (Квинсленд, Австралия) (226 км)
Погода в Камоауиле (Квинсленд, Австралия) (282 км)
Погода в Уинтоне (Квинсленд, Австралия) (332 км)
Погода в Ричмонд аэропорту (Квинсленд, Австралия) (353 км)
Погода на Руднике Century Mine (Квинсленд, Австралия) (362 км)

Пояснения к столбцам:

Ветер - указаны скорость ветра в м/с - средняя за 10 мин, порывы в срок и между сроками (в фигурных скобках) и направление, откуда дует ветер: С - северный, СВ - северо-восточный, В - восточный, ЮВ - юго-восточный, Ю - южный, ЮЗ - юго-западный, З - западный, СЗ - северо-западный.
Видимость - горизонтальная дальность видимости в метрах или километрах. При видимости от 1 до 10 км при отсутствии осадков обычно наблюдается дымка, при ухудшении видимости до 1 км и менее - туман. В сухую погоду видимость может ухудшаться дымом, пылью или мглою.
Явления - указаны атмосферные явления, наблюдавшиеся в срок или в последний час перед сроком; фигурными скобками обозначены явления, наблюдавшиеся между сроками (за 1-3 часа до срока); квадратными скобками обозначены град или гололедные отложения с указанием их диаметра в мм.
Облачность - указаны через наклонную черту общая и нижняя облачность в баллах и высота нижней границы облаков в метрах; квадратными скобками обозначены формы облаков: Ci - перистые, Cs - перисто-слоистые, Cc - перисто-кучевые, Ac - высококучевые, As - высокослоистые, Sc - слоисто-кучевые, Ns - слоисто-дождевые, Cu - кучевые, Cb - кучево-дождевые. Подробнее классификацию облаков см. в Атласе облаков (PDF).
T - Температура воздуха - температура, измеренная на высоте 2 м над землей.
Td - Температура точки росы - температура, при понижении до которой содержащийся в воздухе водяной пар достигнет насыщения.
f - Относительная влажность воздуха - влажноcть воздуха, измеренная на высоте 2 м над землей.
Te - Эффективная температура - температура, которую ощущает одетый по сезону человек в тени. Характеристика душности погоды. При расчете учитывается влияние влажности воздуха и скорости ветра на теплоощущения человека.
Tes - Эффективная температура на солнце - температура, которую ощущает человек, с поправкой на солнечный нагрев. Характеристика знойности погоды. Зависит от высоты солнца над горизонтом, облачности и скорости ветра. Ночью, в пасмурную погоду, а также при ветре 12 м/с и более поправка равна нулю.
P - Атмосферное давление - приведенное к уровню моря атмосферное давление.
Po - Атмосферное давление - измеренное на уровне метеостанции атмосферное давление.
Tmin - Минимальная температура - минимум температуры воздуха на высоте 2 м над землей.
Tmax - Максимальная температура - максимум температуры воздуха на высоте 2 м над землей.
R - Количество осадков - Количество выпавших осадков за период времени, мм. При наведении курсора мыши на число - период времени, за который выпало указанное количество осадков.
R24 - Количество осадков - Количество выпавших осадков за 24 часа, мм.
S - Снежный покров - Высота снежного покрова, см. При наведении курсора мыши на число - состояние снежного покрова и степень покрытия местности в баллах.